This demonstration page uses our WeatherBlox Daily Observations layout. Learn more.

41.55636, -103.73856

Hourly Observations for April 24, 2019

Temp ( °F °C ) Dew Point ( °F °C ) Humidity (%) Winds ( mph kmh ) Pressure ( in mb ) Visibility ( mi km ) Precip ( " mm )
12:58 am 00:58 Clear 63 17 39 3.8 42 42 NNE 7 11 29.92 1013 10 16.0934 0 0
1:59 am 01:59 Clear 57 13.8 41 4.8 55 55 NNE 5 7 29.92 1013 10 16.0934 0 0
2:58 am 02:58 Clear 57 14.1 35 1.7 43 43 E 5 7 29.92 1013 10 16.0934 0 0
3:58 am 03:58 Mostly Cloudy 52 11 40 4.3 64 64 SSW 10 17 29.92 1013 10 16.0934 0 0
4:58 am 04:58 Mostly Cloudy 50 10 39 3.8 66 66 SSW 12 19 29.91 1013 10 16.0934 0 0
5:58 am 05:58 Clear 48 9 38 3.2 67 67 SW 10 17 29.91 1013 10 16.0934 0 0
6:59 am 06:59 Clear 45 7.3 37 3 74 74 SSW 8 13 29.91 1013 10 16.0934 0 0
7:58 am 07:58 Clear 46 8 39 3.7 75 75 W 13 20 29.89 1012 10 16.0934 0 0
8:58 am 08:58 Cloudy 46 8 40 4.2 77 77 W 8 13 29.88 1012 10 16.0934 0 0
9:58 am 09:58 Mostly Cloudy 48 9.1 40 4.5 73 73 W 8 13 29.87 1011 10 16.0934 0 0
10:58 am 10:58 Mostly Clear 45 7.3 38 3.4 77 77 WNW 7 11 29.89 1012 10 16.0934 0 0
11:59 am 11:59 Clear 42 5.8 37 2.5 80 80 W 9 15 29.89 1012 10 16.0934 0 0
12:58 pm 12:58 Mostly Cloudy 45 7.3 38 3.1 75 75 W 8 13 29.89 1012 10 16.0934 0 0
1:58 pm 13:58 Mostly Cloudy 49 9.5 38 3.3 66 66 W 7 11 29.91 1013 10 16.0934 0 0
2:58 pm 14:58 Partly Cloudy 50 10.1 39 3.9 66 66 WNW 5 7 29.92 1013 10 16.0934 0 0
3:59 pm 15:59 Mostly Sunny 55 12.9 40 4.2 56 56 W 7 11 29.92 1013 10 16.0934 0 0
4:58 pm 16:58 Mostly Sunny 61 15.9 38 3.3 43 43 WNW 9 15 29.9 1012 10 16.0934 0 0
5:58 pm 17:58 Mostly Cloudy 64 17.5 38 3.5 40 40 NNW 8 13 29.89 1012 10 16.0934 0 0
6:58 pm 18:58 Mostly Cloudy 64 17.8 37 2.7 37 37 WNW 6 9 29.87 1011 10 16.0934 0 0
7:58 pm 19:58 Partly Cloudy 66 19 38 3.4 36 36 WNW 7 11 29.85 1011 10 16.0934 0 0
8:58 pm 20:58 Mostly Sunny 67 19.5 37 2.8 33 33 NNW 7 11 29.83 1010 10 16.0934 0 0
9:58 pm 21:58 Mostly Sunny 67 19.2 36 2.2 32 32 Calm 29.8 1009 10 16.0934 0 0
10:58 pm 22:58 Partly Cloudy 68 20.2 37 2.6 31 31 W 9 15 29.78 1009 10 16.0934 0 0
11:58 pm 23:58 Sunny 68 20.1 37 2.9 32 32 SW 9 15 29.78 1009 10 16.0934 0 0

Powered by AerisWeather